STARLINK-4490 (53409 NORAD) Tracking and Keplerian Element Data

This shows tracking and keplerian element data for the satellite.

Feedback or suggestion? Click here.




ElementValue
Catalog53409
NameSTARLINK-4490
Epoch Orbit1648
Epoch Day325.33334491
Epoch Year2022
RAAN110.8733
Inclination53.2141
Eccentricity0.0001359
Argument of Perigee99.3417
Mean Anonmoly279.5374
Mean Motion15.08818452
Decay Rate0.00048468
L11 53409U 22097X 22325.33334491 .00048468 00000+0 30444-2 0 9991
L22 53409 53.2141 110.8733 0001359 99.3417 279.5374 15.08818452 16481



Live tracking and technical data element details for STARLINK-4490 (NORAD 53409). STARLINK-4490 can be tracked NOW for your location showing map with azimuth and elevation plus other details from your city location.







IsCatalogInMostPopularTable: catalog: 53409, numindb: 4
Update: records affected: 1



GetName: 53409 STARLINK-4490

Hit Count: updated at: Tue, 29 Nov 2022 00:49:09 GMT